DW5057 Weather Reports


Display with metric or nautical units.
time (UTC)temp
F
wind
direction
speed
MPH
gust
MPH
rain 1hr
in
rain 24hr
in
rain mn
in
humidity
%
barometer
mb
20260506192537 65 198 2.0 4.0 0.00 0.03 0.03 82 1010.1
20260506191538 64 189 2.0 4.0 0.00 0.03 0.03 83 1010.1
20260506190517 64 205 1.0 2.0 0.00 0.03 0.03 83 1010.2
20260506185536 63 205 1.0 2.0 0.00 0.03 0.03 84 1010.2
20260506184516 63 185 1.0 3.0 0.00 0.03 0.03 85 1010.2
20260506183557 62 138 1.0 3.0 0.00 0.03 0.03 86 1010.5
20260506182537 63 166 1.0 3.0 0.00 0.03 0.03 84 1010.6
20260506181536 65 127 1.0 5.0 0.02 0.03 0.03 82 1010.7
20260506180516 66 88 1.0 4.0 0.03 0.03 0.03 80 1010.7
20260506175516 66 103 1.0 2.0 0.03 0.03 0.03 79 1010.7
20260506174516 66 129 1.0 3.0 0.03 0.03 0.03 79 1010.7
20260506173516 65 162 1.0 3.0 0.03 0.03 0.03 81 1010.8
20260506172516 64 130 1.0 4.0 0.02 0.02 0.02 81 1011.0
20260506171516 64 205 1.0 3.0 0.00 0.00 0.00 80 1011.0
20260506170517 62 232 1.0 3.0 0.00 0.00 0.00 84 1011.3
20260506165518 62 198 1.0 2.0 0.00 0.00 0.00 87 1011.7
20260506164518 62 177 1.0 3.0 0.00 0.00 0.00 86 1011.9
20260506163518 62 202 1.0 3.0 0.00 0.00 0.00 85 1012.0
20260506162518 62 183 1.0 3.0 0.00 0.00 0.00 86 1012.2
20260506161518 62 154 1.0 4.0 0.00 0.00 0.00 85 1011.9
20260506160516 62 176 1.0 4.0 0.00 0.00 0.00 86 1012.1
20260506155519 62 176 1.0 3.0 0.00 0.00 0.00 86 1012.2
20260506154516 62 185 1.0 3.0 0.00 0.00 0.00 85 1012.2
20260506153517 63 186 1.0 3.0 0.00 0.00 0.00 83 1012.3
20260506152517 63 170 1.0 3.0 0.00 0.00 0.00 83 1012.3
20260506151516 63 191 1.0 4.0 0.00 0.00 0.00 83 1012.4
20260506150516 64 196 1.0 3.0 0.00 0.00 0.00 82 1012.3
20260506145517 64 181 1.0 3.0 0.00 0.00 0.00 81 1012.2
20260506144537 63 209 1.0 4.0 0.00 0.00 0.00 83 1012.4
20260506143518 64 174 1.0 4.0 0.00 0.00 0.00 82 1012.5
20260506142537 65 130 1.0 4.0 0.00 0.00 0.00 80 1012.6
20260506141517 65 153 1.0 3.0 0.00 0.00 0.00 79 1012.4
20260506140518 65 210 1.0 4.0 0.00 0.00 0.00 80 1012.3
20260506135518 65 157 1.0 3.0 0.00 0.00 0.00 79 1012.3
20260506134518 64 64 1.0 3.0 0.00 0.00 0.00 81 1012.5
20260506133619 64 105 1.0 3.0 0.00 0.00 0.00 82 1012.6
20260506132518 64 208 1.0 3.0 0.00 0.00 0.00 82 1012.7
20260506131519 63 175 1.0 3.0 0.00 0.00 0.00 83 1012.6
20260506130518 62 192 1.0 2.0 0.00 0.00 0.00 86 1012.8
20260506125516 62 160 1.0 3.0 0.00 0.00 0.00 86 1012.8
20260506124536 62 182 0.0 2.0 0.00 0.00 0.00 87 1012.8
20260506123516 62 226 1.0 4.0 0.00 0.00 0.00 86 1012.6
20260506122516 60 222 1.0 2.0 0.00 0.00 0.00 90 1012.7
20260506121524 60 181 1.0 2.0 0.00 0.00 0.00 92 1012.7
20260506120524 59 221 1.0 2.0 0.00 0.00 0.00 93 1012.7
20260506115525 59 181 1.0 2.0 0.00 0.00 0.00 92 1012.8
20260506114525 59 227 1.0 2.0 0.00 0.00 0.00 92 1012.7
20260506113525 59 184 1.0 2.0 0.00 0.00 0.00 93 1012.7
20260506112525 59 194 1.0 2.0 0.00 0.00 0.00 93 1012.7
20260506111525 59 201 0.0 1.0 0.00 0.00 0.00 94 1012.7
20260506110525 58 208 1.0 2.0 0.00 0.00 0.00 94 1012.7
20260506105545 58 181 1.0 2.0 0.00 0.00 0.00 94 1012.8
20260506104518 58 173 1.0 3.0 0.00 0.00 0.00 94 1012.9
20260506103518 58 158 1.0 4.0 0.00 0.00 0.00 94 1012.9
20260506102518 58 167 1.0 4.0 0.00 0.00 0.00 94 1012.8
20260506101516 58 160 1.0 3.0 0.00 0.00 0.00 94 1012.8
20260506100516 58 172 2.0 4.0 0.00 0.00 0.00 94 1012.6
20260506095516 58 174 2.0 4.0 0.00 0.00 0.00 94 1012.6
20260506094516 58 155 1.0 4.0 0.00 0.00 0.00 94 1012.7
20260506093537 58 165 1.0 4.0 0.00 0.00 0.00 94 1012.7
20260506092516 58 158 2.0 4.0 0.00 0.00 0.00 94 1012.6
20260506091516 58 168 1.0 4.0 0.00 0.00 0.00 94 1012.6
20260506090516 58 175 1.0 4.0 0.00 0.00 0.00 94 1012.7
20260506085517 58 165 1.0 3.0 0.00 0.00 0.00 94 1012.9
20260506084517 58 172 1.0 3.0 0.00 0.00 0.00 93 1013.0
20260506083517 59 210 0.0 2.0 0.00 0.00 0.00 92 1013.0
20260506082517 59 217 0.0 4.0 0.00 0.00 0.00 90 1013.1
20260506081518 60 170 1.0 3.0 0.00 0.00 0.00 90 1013.0
20260506080558 59 167 1.0 3.0 0.00 0.00 0.00 90 1013.0
20260506073518 60 169 1.0 3.0 0.00 0.00 0.00 90 1012.9
20260506072518 59 178 1.0 3.0 0.00 0.00 0.00 91 1012.9
20260506071515 59 166 1.0 3.0 0.00 0.00 0.00 92 1013.0
20260506070518 58 168 1.0 3.0 0.00 0.00 0.00 93 1013.0
20260506062517 58 178 1.0 4.0 0.00 0.00 0.00 93 1013.1
20260506061516 58 175 1.0 4.0 0.00 0.00 0.00 93 1013.2
20260506060517 58 166 1.0 4.0 0.00 0.00 0.00 92 1013.2
20260506050537 59 162 1.0 4.0 0.00 0.00 0.00 91 1013.7
20260506044518 59 163 1.0 3.0 0.00 0.00 0.00 91 1013.7
20260506043519 59 170 1.0 3.0 0.00 0.00 0.00 90 1013.6
20260506042519 59 175 1.0 3.0 0.00 0.00 0.00 91 1013.6
20260506041517 59 189 1.0 3.0 0.00 0.00 0.00 91 1013.6
20260506040516 59 229 1.0 4.0 0.00 0.00 0.00 90 1013.6
20260506035517 59 195 1.0 4.0 0.00 0.00 0.00 90 1013.7
20260506034517 59 172 1.0 3.0 0.00 0.00 0.00 90 1013.7
20260506033538 59 187 1.0 3.0 0.00 0.00 0.00 90 1013.7
20260506032517 59 221 1.0 3.0 0.00 0.00 0.00 90 1013.8
20260506031517 59 216 1.0 5.0 0.00 0.00 0.00 89 1013.7
20260506030518 59 177 1.0 3.0 0.00 0.00 0.00 89 1013.7
20260506025518 59 204 1.0 4.0 0.00 0.00 0.00 89 1013.8
20260506024538 60 225 1.0 3.0 0.00 0.00 0.00 88 1013.8
20260506023518 60 140 1.0 2.0 0.00 0.00 0.00 88 1013.8
20260506022518 60 188 1.0 4.0 0.00 0.00 0.00 88 1013.7
20260506021518 60 190 1.0 2.0 0.00 0.00 0.00 87 1013.7
20260506020518 60 191 1.0 4.0 0.00 0.00 0.00 87 1013.7
20260506015538 60 130 1.0 3.0 0.00 0.00 0.00 87 1013.6
20260506014519 60 186 1.0 3.0 0.00 0.00 0.00 87 1013.5
20260506013516 60 181 1.0 5.0 0.00 0.00 0.00 86 1013.4
20260506012536 61 173 1.0 4.0 0.00 0.00 0.00 86 1013.4
20260506011516 61 148 1.0 3.0 0.00 0.00 0.00 86 1013.3
20260506010517 61 121 1.0 3.0 0.00 0.00 0.00 85 1013.3
20260506005517 61 144 1.0 3.0 0.00 0.00 0.00 86 1013.1
20260506004517 61 138 1.0 5.0 0.00 0.00 0.00 86 1013.0
20260506003517 61 137 1.0 3.0 0.00 0.00 0.00 86 1012.8
20260506002517 61 127 1.0 3.0 0.00 0.00 0.00 86 1012.8
20260506001557 61 129 1.0 4.0 0.00 0.00 0.00 86 1012.8
20260506000517 61 174 1.0 3.0 0.00 0.00 0.00 85 1012.8
20260505235538 61 229 1.0 4.0 0.00 0.00 0.00 85 1012.8
20260505234522 61 156 1.0 3.0 0.00 0.00 0.00 84 1012.8
20260505233518 61 192 1.0 4.0 0.00 0.00 0.00 84 1012.7
20260505232519 62 174 1.0 4.0 0.00 0.00 0.00 83 1012.8
20260505231538 62 178 1.0 4.0 0.00 0.00 0.00 83 1012.8
20260505230559 62 207 1.0 3.0 0.00 0.00 0.00 82 1012.7
20260505225535 62 189 2.0 4.0 0.00 0.00 0.00 81 1012.7
20260505224516 62 177 2.0 5.0 0.00 0.00 0.00 81 1012.6
20260505223516 63 179 2.0 5.0 0.00 0.00 0.00 79 1012.5
20260505222516 63 177 2.0 4.0 0.00 0.00 0.00 79 1012.4
20260505221516 63 174 2.0 5.0 0.00 0.00 0.00 78 1012.5
20260505220557 63 181 2.0 5.0 0.00 0.00 0.00 77 1012.4
20260505215557 63 170 3.0 6.0 0.00 0.00 0.00 77 1012.3
20260505214516 63 170 2.0 6.0 0.00 0.00 0.00 77 1012.2
20260505213517 64 174 3.0 5.0 0.00 0.00 0.00 77 1012.1
20260505212517 64 169 3.0 6.0 0.00 0.00 0.00 77 1012.1
20260505211537 64 154 3.0 5.0 0.00 0.00 0.00 77 1012.2
20260505210518 64 158 2.0 5.0 0.00 0.00 0.00 77 1012.1
20260505205518 65 159 2.0 4.0 0.00 0.00 0.00 76 1012.2
20260505204518 65 164 3.0 6.0 0.00 0.00 0.00 75 1012.1
20260505203518 64 152 3.0 5.0 0.00 0.00 0.00 76 1012.2
20260505202519 65 156 2.0 6.0 0.00 0.00 0.00 76 1012.2
20260505201518 65 134 2.0 5.0 0.00 0.00 0.00 75 1012.3
20260505200618 65 133 2.0 6.0 0.00 0.00 0.00 75 1012.3
20260505195519 65 148 2.0 5.0 0.00 0.00 0.00 75 1012.3
20260505194516 65 130 2.0 4.0 0.00 0.00 0.00 75 1012.4
20260505193516 65 143 2.0 3.0 0.00 0.00 0.00 75 1012.5